Tallahassee, FL

4:13 AM EST on February 21, 2017 (GMT -0500)
Tallahassee Regional

Weather History for KTLH - September, 2013

Change the Weather History Date:

Tuesday, September 3, 2013

  Actual Average Record
Temperature  
Mean Temperature 82 °F 81 °F  
Max Temperature 92 °F 90 °F 98 °F (1966)
Min Temperature 72 °F 71 °F 62 °F (1968)
Degree Days  
Heating Degree Days 0    
Month to date heating degree days 0  
Since 1 July heating degree days 0  
Cooling Degree Days 17    
Month to date cooling degree days 53  
Year to date cooling degree days 2089  
Growing Degree Days 32 (Base 50)    
Moisture  
Dew Point 72 °F    
Average Humidity 74    
Maximum Humidity 93    
Minimum Humidity 55    
Precipitation  
Precipitation 0.00 in 0.19 in 3.93 in (1965)
Month to date precipitation 0.99 0.56  
Year to date precipitation 54.28 44.47  
Sea Level Pressure  
Sea Level Pressure 29.96 in    
Wind  
Wind Speed 3 mph (South)    
Max Wind Speed 14 mph    
Max Gust Speed 16 mph    
Visibility 10 miles    
Events Fog , Thunderstorm    
T = Trace of Precipitation, MM = Missing Value Source: NWS Daily Summary

Daily Weather History Graph

Daily Weather History Graph

Search for Another Location

Airport or City:

Trip Planner

Search our weather history database for the weather conditions in past years. The results will help you decide how hot, cold, wet, or windy it might be!

Date:

Astronomy

Sep. 03, 2013 Rise Set
Actual Time 7:15 AM EDT 7:57 PM EDT
Civil Twilight 6:50 AM EDT 8:21 PM EDT
Nautical Twilight 6:22 AM EDT 8:50 PM EDT
Astronomical Twilight 5:52 AM EDT 9:19 PM EDT
Moon 5:32 AM EDT (9/3) 6:42 PM EDT (9/3)
Length of Visible Light 13h 30m
Length of Day
12h 42m
Waning Crescent, 3% of the Moon is Illuminated
Sep 3
Waning Crescent
Sep 5
New
Sep 12
First Quarter
Sep 19
Full
Sep 26
Last Quarter

Hourly Weather History & Observations

Time (EDT) Temp. Heat Index Dew Point Humidity Pressure Visibility Wind Dir Wind Speed Gust Speed Precip Events Conditions
12:53 AM 73.9 °F - 71.1 °F 91% 29.96 in 10.0 mi Calm Calm - N/A   Clear
1:53 AM 73.9 °F - 71.1 °F 91% 29.94 in 10.0 mi ESE 3.5 mph - N/A   Clear
2:53 AM 73.0 °F - 71.1 °F 93% 29.93 in 9.0 mi Calm Calm - N/A   Clear
3:53 AM 73.0 °F - 70.0 °F 90% 29.92 in 9.0 mi Calm Calm - N/A   Clear
4:53 AM 73.9 °F - 72.0 °F 93% 29.94 in 10.0 mi Calm Calm - N/A   Clear
5:53 AM 73.9 °F - 71.1 °F 91% 29.95 in 10.0 mi Calm Calm - N/A   Partly Cloudy
6:53 AM 73.0 °F - 70.0 °F 90% 29.96 in 10.0 mi Calm Calm - N/A Fog Patches of Fog
7:53 AM 73.9 °F - 71.1 °F 91% 29.97 in 6.0 mi Calm Calm - N/A   Partly Cloudy
8:53 AM 77.0 °F - 73.0 °F 88% 29.98 in 10.0 mi Calm Calm - N/A   Partly Cloudy
9:53 AM 82.9 °F 90.8 °F 75.9 °F 79% 29.99 in 10.0 mi WNW 4.6 mph - N/A   Partly Cloudy
10:25 AM 84.2 °F 92.3 °F 75.2 °F 74% 30.00 in 10.0 mi West 5.8 mph - N/A   Mostly Cloudy
10:53 AM 86.0 °F 95.1 °F 75.0 °F 70% 30.00 in 10.0 mi Calm Calm - N/A   Mostly Cloudy
11:53 AM 88.0 °F 95.6 °F 73.0 °F 61% 30.00 in 10.0 mi Variable 5.8 mph - N/A   Mostly Cloudy
12:53 PM 87.1 °F 92.0 °F 70.0 °F 57% 29.99 in 10.0 mi NW 3.5 mph - N/A   Mostly Cloudy
1:53 PM 90.0 °F 96.4 °F 71.1 °F 54% 29.96 in 10.0 mi Variable 3.5 mph - N/A   Mostly Cloudy
2:53 PM 90.0 °F 96.4 °F 71.1 °F 54% 29.94 in 10.0 mi Variable 3.5 mph - N/A   Mostly Cloudy
3:53 PM 91.0 °F 99.3 °F 73.0 °F 55% 29.91 in 10.0 mi SW 8.1 mph - N/A   Mostly Cloudy
4:11 PM 91.4 °F 100.1 °F 73.4 °F 55% 29.93 in 10.0 mi SSW 11.5 mph - N/A Thunderstorm Thunderstorm
4:53 PM 84.9 °F 90.1 °F 71.1 °F 63% 29.94 in 10.0 mi East 8.1 mph - N/A Thunderstorm Thunderstorm
5:53 PM 82.9 °F 87.0 °F 70.0 °F 65% 29.94 in 10.0 mi SE 8.1 mph - N/A Thunderstorm Thunderstorm
6:47 PM 80.6 °F 83.9 °F 69.8 °F 70% 29.92 in 10.0 mi Calm Calm - N/A   Mostly Cloudy
6:53 PM 80.1 °F 83.2 °F 70.0 °F 71% 29.92 in 10.0 mi East 3.5 mph - N/A   Mostly Cloudy
7:53 PM 80.1 °F 84.2 °F 73.0 °F 79% 29.94 in 10.0 mi South 3.5 mph - N/A   Scattered Clouds
8:53 PM 80.1 °F 84.2 °F 73.0 °F 79% 29.95 in 10.0 mi SSW 8.1 mph - N/A   Scattered Clouds
9:53 PM 81.0 °F 86.2 °F 73.9 °F 79% 29.98 in 10.0 mi Calm Calm - N/A   Scattered Clouds
10:53 PM 80.1 °F 84.5 °F 73.9 °F 81% 29.99 in 10.0 mi Calm Calm - N/A   Clear
11:53 PM 77.0 °F - 73.0 °F 88% 29.99 in 10.0 mi Calm Calm - N/A   Clear